Time,TemperatureF,DewpointF,PressureIn,WindDirection,WindDirectionDegrees,WindSpeedMPH,WindSpeedGustMPH,Humidity,HourlyPrecipIn,Conditions,Clouds,dailyrainin,SolarRadiationWatts/m^2,SoftwareType,DateUTC
2013-01-16 00:03:00,42.0,42.0,30.32,NNE,20,4.0,11.0,99,0.00,,,0.17,0.000000,,2013-01-16 05:03:00,
2013-01-16 00:12:00,42.0,42.0,30.32,NNE,20,4.0,11.0,99,0.00,,,0.17,0.000000,,2013-01-16 05:12:00,
2013-01-16 00:33:00,42.0,42.0,30.31,North,5,5.0,10.0,99,0.00,,,0.17,0.000000,,2013-01-16 05:33:00,
2013-01-16 00:42:00,42.0,42.0,30.31,North,5,5.0,10.0,99,0.00,,,0.17,0.000000,,2013-01-16 05:42:00,
2013-01-16 00:53:00,42.0,42.0,30.31,North,5,5.0,10.0,99,0.00,,,0.17,0.000000,,2013-01-16 05:53:00,
2013-01-16 01:03:00,42.0,42.0,30.31,North,5,5.0,10.0,99,0.00,,,0.17,0.000000,,2013-01-16 06:03:00,
2013-01-16 01:12:00,42.0,42.0,30.31,North,5,5.0,10.0,99,0.00,,,0.17,0.000000,,2013-01-16 06:12:00,
2013-01-16 01:33:00,42.0,42.0,30.29,North,4,5.0,10.0,99,0.01,,,0.17,0.000000,,2013-01-16 06:33:00,
2013-01-16 01:43:00,42.0,42.0,30.29,North,4,5.0,10.0,99,0.01,,,0.17,0.000000,,2013-01-16 06:43:00,
2013-01-16 01:53:00,42.0,42.0,30.29,North,4,5.0,10.0,99,0.01,,,0.17,0.000000,,2013-01-16 06:53:00,
2013-01-16 02:02:00,42.0,42.0,30.29,North,4,5.0,10.0,99,0.01,,,0.17,0.000000,,2013-01-16 07:02:00,
2013-01-16 02:12:00,42.0,42.0,30.29,North,4,5.0,10.0,99,0.01,,,0.17,0.000000,,2013-01-16 07:12:00,
2013-01-16 02:33:00,42.0,42.0,30.30,North,358,5.0,11.0,99,0.00,,,0.13,0.000000,,2013-01-16 07:33:00,
2013-01-16 02:42:00,42.0,42.0,30.30,North,358,5.0,11.0,99,0.00,,,0.13,0.000000,,2013-01-16 07:42:00,
2013-01-16 02:52:00,42.0,42.0,30.30,North,358,5.0,11.0,99,0.00,,,0.13,0.000000,,2013-01-16 07:52:00,
2013-01-16 03:03:00,42.0,42.0,30.30,North,358,5.0,11.0,99,0.00,,,0.13,0.000000,,2013-01-16 08:03:00,
2013-01-16 03:12:00,42.0,42.0,30.30,North,358,5.0,11.0,99,0.00,,,0.13,0.000000,,2013-01-16 08:12:00,
2013-01-16 03:42:00,42.0,42.0,30.29,NNE,19,7.0,13.0,99,0.00,,,0.11,0.000000,,2013-01-16 08:42:00,
2013-01-16 03:53:00,42.0,42.0,30.29,NNE,19,7.0,13.0,99,0.00,,,0.11,0.000000,,2013-01-16 08:53:00,
2013-01-16 04:02:00,42.0,42.0,30.29,NNE,19,7.0,13.0,99,0.00,,,0.11,0.000000,,2013-01-16 09:02:00,
2013-01-16 04:12:00,42.0,42.0,30.29,NNE,19,7.0,13.0,99,0.00,,,0.11,0.000000,,2013-01-16 09:12:00,
2013-01-16 04:33:00,40.0,40.0,30.28,North,8,5.0,12.0,99,0.03,,,0.13,0.000000,,2013-01-16 09:33:00,
2013-01-16 04:43:00,40.0,40.0,30.28,North,8,5.0,12.0,99,0.03,,,0.13,0.000000,,2013-01-16 09:43:00,
2013-01-16 04:53:00,40.0,40.0,30.28,North,8,5.0,12.0,99,0.03,,,0.13,0.000000,,2013-01-16 09:53:00,
2013-01-16 05:03:00,40.0,40.0,30.28,North,8,5.0,12.0,99,0.03,,,0.13,0.000000,,2013-01-16 10:03:00,
2013-01-16 05:12:00,40.0,40.0,30.28,North,8,5.0,12.0,99,0.03,,,0.13,0.000000,,2013-01-16 10:12:00,
2013-01-16 05:33:00,41.0,41.0,30.25,NE,51,6.0,12.0,99,0.00,,,0.13,0.000000,,2013-01-16 10:33:00,
2013-01-16 05:43:00,41.0,41.0,30.25,NE,51,6.0,12.0,99,0.00,,,0.13,0.000000,,2013-01-16 10:43:00,
2013-01-16 05:53:00,41.0,41.0,30.25,NE,51,6.0,12.0,99,0.00,,,0.13,0.000000,,2013-01-16 10:53:00,
2013-01-16 06:02:00,41.0,41.0,30.25,NE,51,6.0,12.0,99,0.00,,,0.13,0.000000,,2013-01-16 11:02:00,
2013-01-16 06:12:00,41.0,41.0,30.25,NE,51,6.0,12.0,99,0.00,,,0.13,0.000000,,2013-01-16 11:12:00,
2013-01-16 06:33:00,41.0,41.0,30.25,NE,53,5.0,13.0,99,0.00,,,0.12,0.000000,,2013-01-16 11:33:00,
2013-01-16 06:43:00,41.0,41.0,30.25,NE,53,5.0,13.0,99,0.00,,,0.12,0.000000,,2013-01-16 11:43:00,
2013-01-16 06:53:00,41.0,41.0,30.25,NE,53,5.0,13.0,99,0.00,,,0.12,0.000000,,2013-01-16 11:53:00,
2013-01-16 07:03:00,41.0,41.0,30.25,NE,53,5.0,13.0,99,0.00,,,0.12,0.000000,,2013-01-16 12:03:00,
2013-01-16 07:13:00,41.0,41.0,30.25,NE,53,5.0,13.0,99,0.00,,,0.12,0.000000,,2013-01-16 12:13:00,
2013-01-16 07:33:00,41.0,41.0,30.26,NNE,19,4.0,9.0,99,0.00,,,0.09,0.000000,,2013-01-16 12:33:00,
2013-01-16 07:43:00,41.0,41.0,30.26,NNE,19,4.0,9.0,99,0.00,,,0.09,0.000000,,2013-01-16 12:43:00,
2013-01-16 07:53:00,41.0,41.0,30.26,NNE,19,4.0,9.0,99,0.00,,,0.09,0.000000,,2013-01-16 12:53:00,
2013-01-16 08:03:00,41.0,41.0,30.26,NNE,19,4.0,9.0,99,0.00,,,0.09,0.000000,,2013-01-16 13:03:00,
2013-01-16 08:12:00,41.0,41.0,30.26,NNE,19,4.0,9.0,99,0.00,,,0.09,0.000000,,2013-01-16 13:12:00,
2013-01-16 08:43:00,41.0,41.0,30.25,North,351,4.0,8.0,99,0.01,,,0.07,1.000000,,2013-01-16 13:43:00,
2013-01-16 08:53:00,41.0,41.0,30.25,North,351,4.0,8.0,99,0.01,,,0.07,1.000000,,2013-01-16 13:53:00,
2013-01-16 09:03:00,41.0,41.0,30.25,North,351,4.0,8.0,99,0.01,,,0.07,1.000000,,2013-01-16 14:03:00,
2013-01-16 09:12:00,41.0,41.0,30.25,North,351,4.0,8.0,99,0.01,,,0.07,1.000000,,2013-01-16 14:12:00,
2013-01-16 09:33:00,42.0,42.0,30.29,North,2,2.0,35.0,99,0.02,,,0.08,12.000000,,2013-01-16 14:33:00,
2013-01-16 09:43:00,42.0,42.0,30.29,North,2,2.0,35.0,99,0.02,,,0.08,12.000000,,2013-01-16 14:43:00,
2013-01-16 09:53:00,42.0,42.0,30.29,North,2,2.0,35.0,99,0.02,,,0.08,12.000000,,2013-01-16 14:53:00,
2013-01-16 10:03:00,42.0,42.0,30.29,North,2,2.0,35.0,99,0.02,,,0.08,12.000000,,2013-01-16 15:03:00,
2013-01-16 10:12:00,42.0,42.0,30.29,North,2,2.0,35.0,99,0.02,,,0.08,12.000000,,2013-01-16 15:12:00,
2013-01-16 10:43:00,43.0,43.0,30.30,NNW,345,4.0,30.0,99,0.01,,,0.09,42.000000,,2013-01-16 15:43:00,
2013-01-16 10:53:00,43.0,43.0,30.30,NNW,345,4.0,30.0,99,0.01,,,0.09,42.000000,,2013-01-16 15:53:00,
2013-01-16 11:04:00,43.0,43.0,30.30,NNW,345,4.0,30.0,99,0.01,,,0.09,42.000000,,2013-01-16 16:04:00,
2013-01-16 11:12:00,43.0,43.0,30.30,NNW,345,4.0,30.0,99,0.01,,,0.09,42.000000,,2013-01-16 16:12:00,
2013-01-16 11:33:00,43.0,43.0,30.30,North,355,5.0,10.0,99,0.08,,,0.17,44.000000,,2013-01-16 16:33:00,
2013-01-16 11:43:00,43.0,43.0,30.30,North,355,5.0,10.0,99,0.08,,,0.17,44.000000,,2013-01-16 16:43:00,
2013-01-16 11:53:00,43.0,43.0,30.30,North,355,5.0,10.0,99,0.08,,,0.17,44.000000,,2013-01-16 16:53:00,
2013-01-16 12:03:00,43.0,43.0,30.30,North,355,5.0,10.0,99,0.08,,,0.17,44.000000,,2013-01-16 17:03:00,
2013-01-16 12:12:00,43.0,43.0,30.30,North,355,5.0,10.0,99,0.08,,,0.17,44.000000,,2013-01-16 17:12:00,
2013-01-16 12:33:00,44.0,44.0,30.25,SE,124,4.0,12.0,99,0.05,,,0.22,47.000000,,2013-01-16 17:33:00,
2013-01-16 12:44:00,44.0,44.0,30.25,SE,124,4.0,12.0,99,0.05,,,0.22,47.000000,,2013-01-16 17:44:00,
2013-01-16 12:53:00,44.0,44.0,30.25,SE,124,4.0,12.0,99,0.05,,,0.22,47.000000,,2013-01-16 17:53:00,
2013-01-16 13:03:00,44.0,44.0,30.25,SE,124,4.0,12.0,99,0.05,,,0.22,47.000000,,2013-01-16 18:03:00,
2013-01-16 13:13:00,44.0,44.0,30.25,SE,124,4.0,12.0,99,0.05,,,0.22,47.000000,,2013-01-16 18:13:00,
2013-01-16 13:33:00,48.0,47.0,30.22,East,92,3.0,12.0,97,0.01,,,0.22,117.000000,,2013-01-16 18:33:00,
2013-01-16 13:43:00,48.0,47.0,30.22,East,92,3.0,12.0,97,0.01,,,0.22,117.000000,,2013-01-16 18:43:00,
2013-01-16 13:53:00,48.0,47.0,30.22,East,92,3.0,12.0,97,0.01,,,0.22,117.000000,,2013-01-16 18:53:00,
2013-01-16 14:03:00,48.0,47.0,30.22,East,92,3.0,12.0,97,0.01,,,0.22,117.000000,,2013-01-16 19:03:00,
2013-01-16 14:13:00,48.0,47.0,30.22,East,92,3.0,12.0,97,0.01,,,0.22,117.000000,,2013-01-16 19:13:00,
2013-01-16 14:33:00,48.0,47.0,30.21,South,182,5.0,10.0,98,0.00,,,0.22,173.000000,,2013-01-16 19:33:00,
2013-01-16 14:43:00,48.0,47.0,30.21,South,182,5.0,10.0,98,0.00,,,0.22,173.000000,,2013-01-16 19:43:00,
2013-01-16 14:53:00,48.0,47.0,30.21,South,182,5.0,10.0,98,0.00,,,0.22,173.000000,,2013-01-16 19:53:00,
2013-01-16 15:03:00,48.0,47.0,30.21,South,182,5.0,10.0,98,0.00,,,0.22,173.000000,,2013-01-16 20:03:00,
2013-01-16 15:12:00,48.0,47.0,30.21,South,182,5.0,10.0,98,0.00,,,0.22,173.000000,,2013-01-16 20:12:00,
2013-01-16 15:43:00,49.0,48.0,30.21,NNE,18,5.0,16.0,98,0.01,,,0.23,162.000000,,2013-01-16 20:43:00,
2013-01-16 15:53:00,49.0,48.0,30.21,NNE,18,5.0,16.0,98,0.01,,,0.23,162.000000,,2013-01-16 20:53:00,
2013-01-16 16:03:00,49.0,48.0,30.21,NNE,18,5.0,16.0,98,0.01,,,0.23,162.000000,,2013-01-16 21:03:00,
2013-01-16 16:12:00,49.0,48.0,30.21,NNE,18,5.0,16.0,98,0.01,,,0.23,162.000000,,2013-01-16 21:12:00,
2013-01-16 16:43:00,50.0,49.0,30.23,NNE,12,2.0,11.0,97,0.00,,,0.23,89.000000,,2013-01-16 21:43:00,
2013-01-16 16:53:00,50.0,49.0,30.23,NNE,12,2.0,11.0,97,0.00,,,0.23,89.000000,,2013-01-16 21:53:00,
2013-01-16 17:03:00,50.0,49.0,30.23,NNE,12,2.0,11.0,97,0.00,,,0.23,89.000000,,2013-01-16 22:03:00,
2013-01-16 17:12:00,50.0,49.0,30.23,NNE,12,2.0,11.0,97,0.00,,,0.23,89.000000,,2013-01-16 22:12:00,
2013-01-16 17:33:00,51.0,51.0,30.23,SE,135,4.0,10.0,99,0.00,,,0.23,48.000000,,2013-01-16 22:33:00,
2013-01-16 17:43:00,51.0,51.0,30.23,SE,135,4.0,10.0,99,0.00,,,0.23,48.000000,,2013-01-16 22:43:00,
2013-01-16 17:53:00,51.0,51.0,30.23,SE,135,4.0,10.0,99,0.00,,,0.23,48.000000,,2013-01-16 22:53:00,
2013-01-16 18:03:00,51.0,51.0,30.23,SE,135,4.0,10.0,99,0.00,,,0.23,48.000000,,2013-01-16 23:03:00,
2013-01-16 18:12:00,51.0,51.0,30.23,SE,135,4.0,10.0,99,0.00,,,0.23,48.000000,,2013-01-16 23:12:00,
2013-01-16 18:33:00,50.0,50.0,30.24,WNW,297,3.0,6.0,99,0.00,,,0.23,5.000000,,2013-01-16 23:33:00,
2013-01-16 18:43:00,50.0,50.0,30.24,WNW,297,3.0,6.0,99,0.00,,,0.23,5.000000,,2013-01-16 23:43:00,
2013-01-16 18:53:00,50.0,50.0,30.24,WNW,297,3.0,6.0,99,0.00,,,0.23,5.000000,,2013-01-16 23:53:00,
2013-01-16 19:03:00,50.0,50.0,30.24,WNW,297,3.0,6.0,99,0.00,,,0.23,5.000000,,2013-01-17 00:03:00,
2013-01-16 19:12:00,50.0,50.0,30.24,WNW,297,3.0,6.0,99,0.00,,,0.23,5.000000,,2013-01-17 00:12:00,
2013-01-16 19:33:00,48.0,48.0,30.23,NNE,22,2.0,7.0,99,0.00,,,0.23,0.000000,,2013-01-17 00:33:00,
2013-01-16 19:42:00,48.0,48.0,30.23,NNE,22,2.0,7.0,99,0.00,,,0.23,0.000000,,2013-01-17 00:42:00,
2013-01-16 19:53:00,48.0,48.0,30.23,NNE,22,2.0,7.0,99,0.00,,,0.23,0.000000,,2013-01-17 00:53:00,
2013-01-16 20:02:00,48.0,48.0,30.23,NNE,22,2.0,7.0,99,0.00,,,0.23,0.000000,,2013-01-17 01:02:00,
2013-01-16 20:12:00,48.0,48.0,30.23,NNE,22,2.0,7.0,99,0.00,,,0.23,0.000000,,2013-01-17 01:12:00,
2013-01-16 20:33:00,49.0,49.0,30.24,ENE,63,2.0,4.0,99,0.00,,,0.23,0.000000,,2013-01-17 01:33:00,
2013-01-16 20:43:00,49.0,49.0,30.24,ENE,63,2.0,4.0,99,0.00,,,0.23,0.000000,,2013-01-17 01:43:00,
2013-01-16 20:53:00,49.0,49.0,30.24,ENE,63,2.0,4.0,99,0.00,,,0.23,0.000000,,2013-01-17 01:53:00,
2013-01-16 21:02:00,49.0,49.0,30.24,ENE,63,2.0,4.0,99,0.00,,,0.23,0.000000,,2013-01-17 02:02:00,
2013-01-16 21:12:00,49.0,49.0,30.24,ENE,63,2.0,4.0,99,0.00,,,0.23,0.000000,,2013-01-17 02:12:00,
2013-01-16 21:32:00,48.0,48.0,30.24,NNW,344,3.0,4.0,99,0.00,,,0.23,0.000000,,2013-01-17 02:32:00,
2013-01-16 21:43:00,48.0,48.0,30.24,NNW,344,3.0,4.0,99,0.00,,,0.23,0.000000,,2013-01-17 02:43:00,
2013-01-16 21:52:00,48.0,48.0,30.24,NNW,344,3.0,4.0,99,0.00,,,0.23,0.000000,,2013-01-17 02:52:00,
2013-01-16 22:03:00,48.0,48.0,30.24,NNW,344,3.0,4.0,99,0.00,,,0.23,0.000000,,2013-01-17 03:03:00,
2013-01-16 22:12:00,48.0,48.0,30.24,NNW,344,3.0,4.0,99,0.00,,,0.23,0.000000,,2013-01-17 03:12:00,
2013-01-16 22:33:00,48.0,48.0,30.21,SE,136,3.0,5.0,99,0.00,,,0.23,0.000000,,2013-01-17 03:33:00,
2013-01-16 22:43:00,48.0,48.0,30.21,SE,136,3.0,5.0,99,0.00,,,0.23,0.000000,,2013-01-17 03:43:00,
2013-01-16 22:53:00,48.0,48.0,30.21,SE,136,3.0,5.0,99,0.00,,,0.23,0.000000,,2013-01-17 03:53:00,
2013-01-16 23:02:00,48.0,48.0,30.21,SE,136,3.0,5.0,99,0.00,,,0.23,0.000000,,2013-01-17 04:02:00,
2013-01-16 23:12:00,48.0,48.0,30.21,SE,136,3.0,5.0,99,0.00,,,0.23,0.000000,,2013-01-17 04:12:00,
2013-01-16 23:33:00,50.0,50.0,30.21,SSW,205,2.0,4.0,99,0.04,,,0.27,0.000000,,2013-01-17 04:33:00,
2013-01-16 23:43:00,50.0,50.0,30.21,SSW,205,2.0,4.0,99,0.04,,,0.27,0.000000,,2013-01-17 04:43:00,
2013-01-16 23:53:00,50.0,50.0,30.21,SSW,205,2.0,4.0,99,0.04,,,0.27,0.000000,,2013-01-17 04:53:00,